Simultaneous Nadir Overpasses (SNOs) Predictions

Prediction of SNOs between AURA and NPP Satellite Orbit:

Table of predicted SNOs for the next 14.0 days since TLE Epoch: 6/28/2012
Index Date (AURA) Time (AURA) AURA Lat,Lon Date (NPP) Time (NPP) NPP Lat,Lon Distance(km) Time Diff (sec)
1 06/30/2012 12:14:45 79.36,-107.93 06/30/2012 12:13:31 79.40,-107.95 4.42 74
2 06/30/2012 13:03:59 -79.85, 63.18 06/30/2012 13:04:03 -79.85, 63.20 0.43 4
3 07/03/2012 04:31:03 79.76, 10.72 07/03/2012 04:30:22 79.76, 10.85 2.62 41
4 07/03/2012 05:20:25 -79.94, 179.77 07/03/2012 05:21:02 -79.94, 179.86 1.81 37
5 07/05/2012 20:47:29 79.84, 127.22 07/05/2012 20:47:26 79.84, 127.27 1.14 3
6 07/05/2012 21:36:11 -81.18, -50.58 07/05/2012 21:37:25 -80.96, -50.08 26.12 74
7 07/08/2012 12:14:34 -79.70, 74.38 07/08/2012 12:13:56 -79.70, 74.36 0.41 38
8 07/08/2012 13:03:53 79.94,-116.07 07/08/2012 13:04:32 79.95,-115.91 3.19 39
9 07/11/2012 03:41:37 79.60, 21.95 07/11/2012 03:40:28 79.60, 21.90 1.10 69




NCC Satellite Simultaneous Nadir Overpasses (SNOs) Prediction Service
